sat.trackr.live / text

‹ back to catalog

STARLINK-32026

NORAD 60098 · 2024-117H

PAYLOAD ACTIVE UNKNOWN

§ Identity

Operator
Country
US
Launch date
2024-06-23
Launch site
AFETR
Launch vehicle
Mass (kg)
RCS (m²)

Purposes: comms

External: N2YO · Heavens-Above · Gunter

§ Orbital elements

Epoch: 2026-09-21T05:48:29.740032Z

Period
93.85 min
Inclination
53.1577°
Eccentricity
0.0001498
Mean motion
15.34391471 rev/d
Perigee alt
461.7 km
Apogee alt
463.8 km
Semi-major
6,840.9 km
B*
-6.7470e-6
RAAN
206.1638°
Arg perigee
87.0631°
Mean anomaly
273.0543°
Rev number
12,686

§ Raw data

STARLINK-320261 60098U 24117H   26264.24201088 -.00000604  00000+0 -67470-5 0  99932 60098  53.1577 206.1638 0001498  87.0631 273.0543 15.34391471126861

JSON: /api/v1/satellites/60098 · /tle

For live sub-satellite position, see the globe view (requires WebGL).

§ Visibility from observer

Set your observer location to see the next 7 days of passes ≥ 10°. The values pass through the URL so the page stays shareable.

No JS? Fill the form by hand. The geolocation button needs JavaScript.